Location: Observatoire
(46.1952°N, 5.3391°E)
Time: 15:29:47
(UTC+02:00)

AO-27 - Visible Passes

Search period start: 24 April 2024 00:00
Search period end: 04 May 2024 00:00
Orbit: 785 x 795 km, 98.8° (Epoch: 24 April)

Date Brightness Start Highest point End Pass type
(mag) Time Alt. Az. Time Alt. Az. Time Alt. Az.
24 Apr 7.6 21:47:39 10° SSE 21:52:52 79° ENE 21:58:07 10° NNW visible
24 Apr 10.1 23:30:01 10° WSW 23:32:56 15° W 23:35:52 10° NW visible
25 Apr 8.1 21:18:32 10° SE 21:23:28 45° ENE 21:28:26 10° N visible
25 Apr 9.4 22:58:43 10° SSW 23:03:05 27° W 23:07:31 10° NW visible
26 Apr 8.5 22:28:22 10° S 22:33:24 48° W 22:38:28 10° NNW visible
27 Apr 7.7 21:58:36 10° SSE 22:03:50 85° WSW 22:09:07 10° NNW visible
27 Apr 10.3 23:42:11 10° WSW 23:44:04 12° W 23:45:57 10° WNW visible
28 Apr 7.9 21:29:19 10° SE 21:34:24 55° ENE 21:39:31 10° N visible
28 Apr 9.7 23:10:11 10° SW 23:14:11 22° W 23:18:11 10° NW visible
29 Apr 8.9 22:39:34 10° SSW 22:44:26 39° W 22:49:20 10° NNW visible
30 Apr 7.9 22:09:36 10° S 22:14:49 70° WSW 22:20:04 10° NNW visible
01 May 7.7 21:40:09 10° SSE 21:45:20 67° ENE 21:50:32 10° N visible
01 May 10.0 23:21:48 10° SW 23:25:16 18° W 23:28:45 10° NW visible
02 May 9.2 22:50:51 10° SSW 22:55:28 31° W 23:00:07 10° NNW visible
03 May 8.2 22:20:41 10° S 22:25:48 56° W 22:30:58 10° NNW visible
